Location: Gu�tanj
(46.5431°N, 14.9692°E)
Time: 13:58:26
(UTC+00:00)

Meteor 1-5 Rocket - Pass Details

Date: 03 March 2021
Orbit: 790 x 915 km, 81.2° (Epoch: 19 April)

Event Time Altitude Azimuth Distance (km) Brightness Sun altitude
Rises 18:30:30 0° 189° (S) 3,285 7.3 -18.2°
Reaches altitude 10° 18:32:50 10° 189° (S) 2,369 6.5 -18.6°
Maximum altitude 18:38:11 89° 98° (E) 821 4.1 -19.5°
Drops below altitude 10° 18:43:44 10° 11° (NNE) 2,454 6.6 -20.4°
Sets 18:46:11 0° 12° (NNE) 3,411 7.4 -20.8°
